Погода в Троицком

Россия / Сахалинская область     46°55′30″N   142°38′58″E
темп.,
°C
ветер,
м/с
пор.,
м/с
влажн.,
%
обл.,
%
осадки,
мм/ч
давл.,
гПа
погр.,
м
19 сентября, вс
вс1923:00+11ю249929 0.0 101263
02:00+12ююз249999 0.0 1012199
05:00+12ссз239793 0.0 101296
08:00+9сз22855 0.0 101326
11:00+15сз345220 0.0 1013961
14:00+16зсз56385 0.0 10121675
17:00+14зсз4448100 0.0 10131303
20:00+10сз2163100 0.0 101518
20 сентября, пн
пн2023:00+6з11724 0.0 101611
02:00+6зсз11775 0.0 101611
05:00+6зсз226892 0.0 101615
08:00+7з12760 0.0 101718
11:00+15з58505 0.0 10161824
14:00+16з79465 0.0 10161645
17:00+14з685122 0.0 10161309
20:00+8зюз1177100 0.0 101811
21 сентября, вт
вт2123:00+7зюз1177100 0.0 101912
02:00+8юз1177100 0.0 101812
05:00+8зюз118794 0.0 101812
08:00+9ююз118564 0.0 101816
11:00+15ююз3464100 0.0 1017442
14:00+16ююз3563100 0.0 1016819
17:00+16ююз4671100 0.0 1014670
20:00+13юз2280100 0.0 101536
22 сентября, ср
ср2223:00+12ююз2294100 0.4 101648
02:00+12зсз0096100 0.2 101512
05:00+12св2295100 1.1 101533
08:00+12всв2296100 0.5 101557
11:00+12св2399100 4.7 1014192
14:00+12св3898100 7.6 1012527
17:00+11всв41197100 15.8 1012665
20:00+11св51397100 5.0 1013759
23 сентября, чт
чт2323:00+10св61497100 6.1 1015878
02:00+10св51497100 0.6 1015833
05:00+10св51497100 1.1 1016808
08:00+10св51496100 0.2 1016821
11:00+10св51288100 0.2 1017814
14:00+10св51082100 0.0 1018827
17:00+11св51073100 0.0 1018848
20:00+9св41181100 0.0 1019819